Tracking 28790 objects as of 18-Apr-2024
HD Live streaming from Space Station
objects crossing your sky now

STARLINK-5640

Track STARLINK-5640 now!
10-day predictions
STARLINK-5640 is classified as:


NORAD ID: 55436
Int'l Code: 2023-014AX
Perigee: 577.0 km
Apogee: 581.4 km
Inclination: 70.0 °
Period: 96.1 minutes
Semi major axis: 6950 km
RCS: Unknown
Launch date: January 31, 2023
Source: United States (US)
Launch site: AIR FORCE WESTERN TEST RANGE (AFWTR)
Your satellite tracking list
Your tracking list is empty




NASA's NSSDC Master Catalog

Two Line Element Set (TLE):
1 55436U 23014AX  24109.16541426 -.00001206  00000-0 -93284-4 0  9999
2 55436  70.0013  45.5643 0003194 271.1173  88.9620 14.98320413 66697
Source of the keplerian elements: AFSPC